Regional Weather Roundup
Issued by NWS Newport/Morehead, NC

Current Version | Previous Version | Graphics & Text | Print | Product List | Glossary On
Versions: 1 2 3 4 5 6 7 8 9 10 11 12 13 14 15 16 17 18 19 20 21 22 23 24 25 26 27 28 29 30 31 32 33 34 35 36 37 38 39 40 41 42 43 44 45 46 47 48 49 50
000 ASUS42 KMHX 250713 RWRMHX WEATHER ROUNDUP FOR EASTERN NORTH CAROLINA NATIONAL WEATHER SERVICE NEWPORT/MOREHEAD CITY NC 300 AM EDT MON SEP 25 2017 NOTE: "FAIR" INDICATES FEW OR NO CLOUDS BELOW 12,000 FEET WITH NO SIGNIFICANT WEATHER AND/OR OBSTRUCTIONS TO VISIBILITY NCZ015>017-031-032-045>047-102-103-250800- NORTH COAST CITY SKY/WX TMP DP RH WIND PRES REMARKS EDENTON CLOUDY 68 66 94 CALM 29.98S ELIZABETH CITY MOCLDY 71 69 93 NE10 29.98S KITTY HAWK CLOUDY 70 65 83 NE12 29.95F MANTEO MOCLDY 71 67 87 E17G25 29.96F $$ NCZ045>047-081-094-103-104-250800- CENTRAL COAST CITY SKY/WX TMP DP RH WIND PRES REMARKS FRISCO CLOUDY 73 70 90 NE10G21 29.91F $$ NCZ095-097-098-100-101-250800- SOUTHERN COAST CITY SKY/WX TMP DP RH WIND PRES REMARKS BEAUFORT MOCLDY 73 72 96 NE10 29.90F CEDAR ISLAND NOT AVBL JACKSONVILLE CLOUDY 70 68 93 N9 29.92F PINEY ISLAND N/A N/A N/A N/A NE17G23 29.90F WILMINGTON PTCLDY 69 66 90 NE10 29.91F $$ NCZ011>013-027>030-043-044-078>080-089-090>093-098-250800- COASTAL PLAIN CITY SKY/WX TMP DP RH WIND PRES REMARKS AHOSKIE CLEAR 63 62 99 CALM 29.99R CLINTON PTCLDY 68 63 85 CALM 29.97R ELIZABETHTOWN NOT AVBL GOLDSBORO CLOUDY 67 66 99 NE7 29.95S GREENVILLE PTCLDY 63 63 100 N3 29.99S HAVELOCK CLOUDY 72 70 93 N14 29.93F KENANSVILLE CLOUDY 66 63 88 NE3 29.96S KINSTON PTCLDY 66 63 90 N6 29.97S NEW BERN CLOUDY 70 69 97 NE9 29.95F RICHLANDS CLOUDY 67 65 93 N9 29.94F ROCKY MOUNT PTCLDY 65 62 90 CALM 29.99S WASHINGTON MOCLDY 67 65 93 NE6 29.96F WHITEVILLE CLOUDY 70 63 78 N5 29.93S $$ AMZ130-135-150-152-154-156-158-170-250-252-270-ANZ085-086-088-633-658-670-250800- MARINE OBSERVATIONS STATION/POSITION TIME TEMP WIND PRES WAVE SWELL AIR SEA DIR/SP/G HT/PER HT/PER (UTC) (F) (DEG/KT/KT) (MB) (FT/S) (FT/S) CHESAPEAKE LIGHT NOT AVBL 64 E VA BEACH 0550 71 70 60/ 14/ 17 1015.2 11/15 10/15 DUCK 0636 72 77 80/ 19/ 21 1014.6 2 E DUCK 0630 75 N/A 6/15 5/15 OREGON INLET 0636 72 76 40/ 15/ 20 1013.8 13E OREGON INLT 0648 75 N/A 9/13 10/13 HATTERAS CG 0636 73 78 50/ 10/ 20 1012.8 DIAMOND BUOY 0550 75 80 30/ 21/ 25 1012.2 11/15 10/15 CAPE LOOKOUT 0700 74 30/ 22/ 26 1012.0 BEAUFORT LAB 0636 73 76 20/ 10/ 12 1012.0 30 SE NEW RVR IN 0608 77 50/ 21/ 27 1011.7 30 SE NEW RVR IN NOT AVBL 27 SE WRIGHTSVLE 0608 76 80 60/ 19/ 27 1011.6 5 SE WRIGHTSVLE 0608 74 78 50/ 14/ 25 1012.5 225 S CAPE HAT 0650 81 80 20/ 33/ 39 998.6 21/12 41 SE CHARLESTON 0650 79 81 20/ 19/ 23 1010.4 11/15 10/15 $$

USA.gov is the U.S. government's official web portal to all federal, state and local government web resources and services.